Погода в Плотбище

Россия / Кировская область     56°49′25″N   50°33′41″E
темп.,
°C
ветер,
м/с
пор.,
м/с
влажн.,
%
обл.,
%
осадки,
мм/ч
давл.,
гПа
погр.,
м
17 мая, пн
пн1700:00+16с228320 0.5 101621
03:00+16ююз338662 1.3 101640
06:00+18з248028 0.3 1018193
09:00+23зюз3557100 0.3 1018733
12:00+26з3548100 0.0 10181429
15:00+27зсз3546100 0.0 10171512
18:00+24ссз23608 0.2 101784
21:00+18с227153 0.4 101813
18 мая, вт
вт1800:00+16ссв117756 0.1 101911
03:00+14св228313 0.1 102027
06:00+17св367685 0.0 1020204
09:00+22всв335698 0.0 1020795
12:00+25св3341100 0.0 10201295
15:00+26св33365 0.0 10201447
18:00+22всв355214 0.0 1020109
21:00+17в3864100 0.0 1021125
19 мая, ср
ср1900:00+15вюв38746 0.0 1021144
03:00+13вюв388010 0.0 1021139
06:00+16вюв497115 0.0 1022319
09:00+21вюв56485 0.0 1021856
12:00+24юв56385 0.0 10201302
15:00+25юв56365 0.0 10201512
18:00+22вюв37545 0.0 1019171
21:00+17вюв411675 0.0 1019194
20 мая, чт
чт2000:00+15юв411745 0.0 1019194
03:00+14юв35785 0.0 102082
06:00+17ююв4106735 0.0 1019291
09:00+22ююв684626 0.0 1019963
12:00+24ююв683810 0.0 10181438
15:00+25ююв684019 0.0 10181683
18:00+21ююв48545 0.0 1017270
21:00+16ююв37670 0.0 1017111
21 мая, пт
пт2100:00+14ююв376799 0.0 1016107
03:00+13ююв3768100 0.0 1017118
06:00+16ююв386795 0.0 1017222
09:00+21ююв5850100 0.0 1017625
12:00+24ю574686 0.0 10171522
15:00+24ююз564877 0.0 10162131
18:00+22ююз366193 0.0 1017238
21:00+16ссз118447 0.1 101811